Time,TemperatureF,DewpointF,PressureIn,WindDirection,WindDirectionDegrees,WindSpeedMPH,WindSpeedGustMPH,Humidity,HourlyPrecipIn,Conditions,Clouds,dailyrainin,SoftwareType,DateUTC
2013-07-08 00:00:00,68.8,64.1,30.12,WSW,248,0.0,0.0,85,0.00,,,0.00,VWS V14.01,2013-07-08 04:00:00,
2013-07-08 00:10:00,68.4,64.1,30.12,WSW,248,0.0,0.0,86,0.00,,,0.00,VWS V14.01,2013-07-08 04:10:00,
2013-07-08 00:20:00,68.3,64.3,30.11,WSW,248,0.0,0.0,87,0.00,,,0.00,VWS V14.01,2013-07-08 04:20:00,
2013-07-08 00:30:00,68.3,64.0,30.12,WSW,248,0.0,0.0,86,0.00,,,0.00,VWS V14.01,2013-07-08 04:30:00,
2013-07-08 00:40:00,68.1,63.8,30.12,WSW,248,0.0,0.0,86,0.00,,,0.00,VWS V14.01,2013-07-08 04:40:00,
2013-07-08 00:50:00,68.1,63.8,30.11,WSW,248,0.0,0.0,86,0.00,,,0.00,VWS V14.01,2013-07-08 04:50:00,
2013-07-08 01:00:00,67.9,63.9,30.11,WSW,248,0.0,0.0,87,0.00,,,0.00,VWS V14.01,2013-07-08 05:00:00,
2013-07-08 01:10:00,67.9,63.9,30.11,WSW,248,0.0,0.0,87,0.00,,,0.00,VWS V14.01,2013-07-08 05:10:00,
2013-07-08 01:20:00,67.8,64.1,30.11,WSW,248,0.0,0.0,88,0.00,,,0.00,VWS V14.01,2013-07-08 05:20:00,
2013-07-08 01:30:00,67.6,64.2,30.11,WSW,248,0.0,0.0,89,0.00,,,0.00,VWS V14.01,2013-07-08 05:30:00,
2013-07-08 01:40:00,67.6,64.2,30.11,WSW,248,0.0,0.0,89,0.00,,,0.00,VWS V14.01,2013-07-08 05:40:00,
2013-07-08 01:50:00,67.6,64.2,30.11,WSW,248,0.0,0.0,89,0.00,,,0.00,VWS V14.01,2013-07-08 05:50:00,
2013-07-08 02:00:00,67.6,64.2,30.11,WSW,248,0.0,0.0,89,0.00,,,0.00,VWS V14.01,2013-07-08 06:00:00,
2013-07-08 02:10:00,67.4,64.4,30.11,WSW,248,0.0,0.0,90,0.00,,,0.00,VWS V14.01,2013-07-08 06:10:00,
2013-07-08 02:20:00,67.1,64.1,30.11,WSW,248,0.0,0.0,90,0.00,,,0.00,VWS V14.01,2013-07-08 06:20:00,
2013-07-08 02:30:00,66.9,64.2,30.11,WSW,248,0.0,0.0,91,0.00,,,0.00,VWS V14.01,2013-07-08 06:30:00,
2013-07-08 02:40:00,66.9,64.2,30.11,WSW,248,0.0,0.0,91,0.00,,,0.00,VWS V14.01,2013-07-08 06:40:00,
2013-07-08 02:50:00,66.8,64.1,30.11,WSW,248,0.0,0.0,91,0.00,,,0.00,VWS V14.01,2013-07-08 06:50:00,
2013-07-08 03:00:00,66.4,63.7,30.11,WSW,248,0.0,0.0,91,0.00,,,0.00,VWS V14.01,2013-07-08 07:00:00,
2013-07-08 03:10:00,66.4,64.0,30.11,WSW,248,0.0,0.0,92,0.00,,,0.00,VWS V14.01,2013-07-08 07:10:00,
2013-07-08 03:20:00,66.3,63.9,30.11,WSW,248,0.0,0.0,92,0.00,,,0.00,VWS V14.01,2013-07-08 07:20:00,
2013-07-08 03:30:00,66.1,63.7,30.12,WSW,248,0.0,0.0,92,0.00,,,0.00,VWS V14.01,2013-07-08 07:30:00,
2013-07-08 03:40:00,66.1,63.7,30.12,WSW,248,0.0,0.0,92,0.00,,,0.00,VWS V14.01,2013-07-08 07:40:00,
2013-07-08 03:50:00,66.1,64.0,30.12,WSW,248,0.0,0.0,93,0.00,,,0.00,VWS V14.01,2013-07-08 07:50:00,
2013-07-08 04:00:00,66.3,64.2,30.12,WSW,248,0.0,0.0,93,0.00,,,0.00,VWS V14.01,2013-07-08 08:00:00,
2013-07-08 04:10:00,66.3,64.2,30.12,WSW,248,0.0,0.0,93,0.00,,,0.00,VWS V14.01,2013-07-08 08:10:00,
2013-07-08 04:20:00,66.4,64.3,30.13,WSW,248,0.0,0.0,93,0.00,,,0.00,VWS V14.01,2013-07-08 08:20:00,
2013-07-08 04:30:00,66.4,64.3,30.13,WSW,248,0.0,0.0,93,0.00,,,0.00,VWS V14.01,2013-07-08 08:30:00,
2013-07-08 04:40:00,66.4,64.3,30.13,WSW,248,0.0,0.0,93,0.00,,,0.00,VWS V14.01,2013-07-08 08:40:00,
2013-07-08 04:50:00,66.4,64.6,30.13,WSW,248,0.0,0.0,94,0.00,,,0.00,VWS V14.01,2013-07-08 08:50:00,
2013-07-08 05:00:00,66.4,64.6,30.13,WSW,248,0.0,0.0,94,0.00,,,0.00,VWS V14.01,2013-07-08 09:00:00,
2013-07-08 05:10:00,66.4,64.6,30.13,WSW,248,0.0,0.0,94,0.00,,,0.00,VWS V14.01,2013-07-08 09:10:00,
2013-07-08 05:20:00,66.4,64.9,30.13,WSW,248,0.0,0.0,95,0.00,,,0.00,VWS V14.01,2013-07-08 09:20:00,
2013-07-08 05:30:00,66.4,64.9,30.13,WSW,248,0.0,0.0,95,0.00,,,0.00,VWS V14.01,2013-07-08 09:30:00,
2013-07-08 05:40:00,66.4,64.9,30.13,WSW,248,0.0,0.0,95,0.00,,,0.00,VWS V14.01,2013-07-08 09:40:00,
2013-07-08 05:50:00,66.6,65.1,30.13,WSW,248,0.0,0.0,95,0.00,,,0.00,VWS V14.01,2013-07-08 09:50:00,
2013-07-08 06:00:00,66.8,65.6,30.13,WSW,248,0.0,0.0,96,0.00,,,0.00,VWS V14.01,2013-07-08 10:00:00,
2013-07-08 06:10:00,66.9,65.7,30.13,WSW,248,0.0,0.0,96,0.00,,,0.00,VWS V14.01,2013-07-08 10:10:00,
2013-07-08 06:20:00,67.1,65.9,30.13,WSW,248,0.0,0.0,96,0.00,,,0.00,VWS V14.01,2013-07-08 10:20:00,
2013-07-08 06:30:00,67.3,66.1,30.13,WSW,248,0.0,0.0,96,0.00,,,0.00,VWS V14.01,2013-07-08 10:30:00,
2013-07-08 06:40:00,67.4,66.2,30.13,WSW,248,0.0,1.0,96,0.00,,,0.00,VWS V14.01,2013-07-08 10:40:00,
2013-07-08 06:50:00,67.8,66.6,30.14,WSW,248,0.0,0.0,96,0.00,,,0.00,VWS V14.01,2013-07-08 10:50:00,
2013-07-08 07:00:00,68.4,67.2,30.14,WSW,248,0.0,0.0,96,0.00,,,0.00,VWS V14.01,2013-07-08 11:00:00,
2013-07-08 07:10:00,69.4,68.2,30.14,WSW,248,0.0,1.0,96,0.00,,,0.00,VWS V14.01,2013-07-08 11:10:00,
2013-07-08 07:20:00,70.6,69.1,30.14,WSW,248,0.0,1.0,95,0.00,,,0.00,VWS V14.01,2013-07-08 11:20:00,
2013-07-08 07:30:00,71.8,69.3,30.15,WSW,248,0.0,1.0,92,0.00,,,0.00,VWS V14.01,2013-07-08 11:30:00,
2013-07-08 07:40:00,72.5,68.8,30.15,SW,225,0.0,1.0,88,0.00,,,0.00,VWS V14.01,2013-07-08 11:40:00,
2013-07-08 07:50:00,73.7,68.6,30.16,SW,225,0.0,1.0,84,0.00,,,0.00,VWS V14.01,2013-07-08 11:50:00,
2013-07-08 08:00:00,74.7,68.1,30.15,SW,225,0.0,1.0,80,0.00,,,0.00,VWS V14.01,2013-07-08 12:00:00,
2013-07-08 08:10:00,75.3,68.3,30.15,SSW,202,0.0,1.0,79,0.00,,,0.00,VWS V14.01,2013-07-08 12:10:00,
2013-07-08 08:20:00,76.3,68.6,30.15,SSW,202,0.0,1.0,77,0.00,,,0.00,VWS V14.01,2013-07-08 12:20:00,
2013-07-08 08:30:00,77.0,68.5,30.16,SSW,202,0.0,1.0,75,0.00,,,0.00,VWS V14.01,2013-07-08 12:30:00,
2013-07-08 08:40:00,78.1,69.1,30.16,SSW,202,0.0,1.0,74,0.00,,,0.00,VWS V14.01,2013-07-08 12:40:00,
2013-07-08 08:50:00,79.0,68.8,30.16,SSW,202,0.0,1.0,71,0.00,,,0.00,VWS V14.01,2013-07-08 12:50:00,
2013-07-08 09:00:00,79.6,68.5,30.16,SSW,202,0.0,1.0,69,0.00,,,0.00,VWS V14.01,2013-07-08 13:00:00,
2013-07-08 09:10:00,80.5,69.0,30.16,SSW,202,0.0,1.0,68,0.00,,,0.00,VWS V14.01,2013-07-08 13:10:00,
2013-07-08 09:26:00,82.0,69.5,30.16,SSW,205,0.0,1.0,66,0.00,,,0.00,VWS V14.01,2013-07-08 13:26:00,
2013-07-08 09:30:00,82.2,69.3,30.15,SSW,205,0.0,1.0,65,0.00,,,0.00,VWS V14.01,2013-07-08 13:30:00,
2013-07-08 09:31:00,82.2,68.8,30.15,SSW,204,0.0,1.0,64,0.00,,,0.00,VWS V14.01,2013-07-08 13:31:00,
2013-07-08 09:36:00,82.2,68.8,30.15,South,188,0.0,1.0,64,0.00,,,0.00,VWS V14.01,2013-07-08 13:36:00,
2013-07-08 09:40:00,82.2,68.4,30.15,SW,214,0.0,1.0,63,0.00,,,0.00,VWS V14.01,2013-07-08 13:40:00,
2013-07-08 09:41:00,82.4,68.1,30.15,SSW,204,0.0,1.0,62,0.00,,,0.00,VWS V14.01,2013-07-08 13:41:00,
2013-07-08 09:46:00,82.4,68.6,30.16,SSW,207,0.0,1.0,63,0.00,,,0.00,VWS V14.01,2013-07-08 13:46:00,
2013-07-08 09:50:00,82.8,68.9,30.16,SSW,207,0.0,1.0,63,0.00,,,0.00,VWS V14.01,2013-07-08 13:50:00,
2013-07-08 09:51:00,82.8,68.9,30.16,SSW,207,0.0,1.0,63,0.00,,,0.00,VWS V14.01,2013-07-08 13:51:00,
2013-07-08 09:56:00,83.4,69.0,30.16,SSW,207,0.0,1.0,62,0.00,,,0.00,VWS V14.01,2013-07-08 13:56:00,
2013-07-08 10:00:00,83.4,68.6,30.16,SW,236,0.0,1.0,61,0.00,,,0.00,VWS V14.01,2013-07-08 14:00:00,
2013-07-08 10:01:00,83.4,69.0,30.16,SW,236,0.0,1.0,62,0.00,,,0.00,VWS V14.01,2013-07-08 14:01:00,
2013-07-08 10:06:00,83.4,68.6,30.16,SW,235,0.0,1.0,61,0.00,,,0.00,VWS V14.01,2013-07-08 14:06:00,
2013-07-08 10:10:00,83.6,68.7,30.16,SW,235,0.0,1.0,61,0.00,,,0.00,VWS V14.01,2013-07-08 14:10:00,
2013-07-08 10:11:00,83.6,68.7,30.16,SW,235,0.0,1.0,61,0.00,,,0.00,VWS V14.01,2013-07-08 14:11:00,
2013-07-08 10:16:00,83.6,68.3,30.16,SW,218,0.0,1.0,60,0.00,,,0.00,VWS V14.01,2013-07-08 14:16:00,
2013-07-08 10:20:00,84.0,69.1,30.16,SW,218,0.0,1.0,61,0.00,,,0.00,VWS V14.01,2013-07-08 14:20:00,
2013-07-08 10:21:00,84.0,69.1,30.16,SW,218,0.0,1.0,61,0.00,,,0.00,VWS V14.01,2013-07-08 14:21:00,
2013-07-08 10:26:00,84.3,68.9,30.16,SW,218,0.0,1.0,60,0.00,,,0.00,VWS V14.01,2013-07-08 14:26:00,
2013-07-08 10:30:00,84.3,69.4,30.16,SW,218,0.0,1.0,61,0.00,,,0.00,VWS V14.01,2013-07-08 14:30:00,
2013-07-08 10:31:00,84.1,69.2,30.16,SW,234,0.0,1.0,61,0.00,,,0.00,VWS V14.01,2013-07-08 14:31:00,
2013-07-08 10:36:00,83.6,67.8,30.16,SW,234,0.0,1.0,59,0.00,,,0.00,VWS V14.01,2013-07-08 14:36:00,
2013-07-08 10:40:00,83.8,68.0,30.16,SW,232,0.0,1.0,59,0.00,,,0.00,VWS V14.01,2013-07-08 14:40:00,
2013-07-08 10:41:00,83.8,68.0,30.16,SW,232,0.0,1.0,59,0.00,,,0.00,VWS V14.01,2013-07-08 14:41:00,
2013-07-08 10:46:00,84.1,68.7,30.16,SSW,207,0.0,1.0,60,0.00,,,0.00,VWS V14.01,2013-07-08 14:46:00,
2013-07-08 10:50:00,84.1,67.7,30.16,South,176,0.0,1.0,58,0.00,,,0.00,VWS V14.01,2013-07-08 14:50:00,
2013-07-08 10:51:00,84.3,67.9,30.16,South,176,0.0,1.0,58,0.00,,,0.00,VWS V14.01,2013-07-08 14:51:00,
2013-07-08 11:00:00,84.1,66.7,30.16,WSW,248,0.0,1.0,56,0.00,,,0.00,VWS V14.01,2013-07-08 15:00:00,
2013-07-08 11:10:00,84.9,67.5,30.16,WSW,248,0.0,1.0,56,0.00,,,0.00,VWS V14.01,2013-07-08 15:10:00,
2013-07-08 11:20:00,84.7,66.8,30.16,South,180,0.0,2.0,55,0.00,,,0.00,VWS V14.01,2013-07-08 15:20:00,
2013-07-08 11:30:00,84.3,66.4,30.16,SW,225,0.0,1.0,55,0.00,,,0.00,VWS V14.01,2013-07-08 15:30:00,
2013-07-08 11:40:00,84.0,68.1,30.16,SW,225,0.0,1.0,59,0.00,,,0.00,VWS V14.01,2013-07-08 15:40:00,
2013-07-08 11:50:00,83.4,66.6,30.16,WSW,248,0.0,1.0,57,0.00,,,0.00,VWS V14.01,2013-07-08 15:50:00,
2013-07-08 12:00:00,84.3,66.4,30.15,WSW,248,0.0,1.0,55,0.00,,,0.00,VWS V14.01,2013-07-08 16:00:00,
2013-07-08 12:10:00,85.3,66.2,30.15,WSW,248,0.0,1.0,53,0.00,,,0.00,VWS V14.01,2013-07-08 16:10:00,
2013-07-08 12:20:00,86.1,65.9,30.15,WSW,248,0.0,1.0,51,0.00,,,0.00,VWS V14.01,2013-07-08 16:20:00,
2013-07-08 12:30:00,86.5,65.1,30.15,SW,225,0.0,1.0,49,0.00,,,0.00,VWS V14.01,2013-07-08 16:30:00,
2013-07-08 12:40:00,87.4,67.6,30.15,SW,225,0.0,3.0,52,0.00,,,0.00,VWS V14.01,2013-07-08 16:40:00,
2013-07-08 12:50:00,86.7,65.9,30.15,SSE,158,0.0,1.0,50,0.00,,,0.00,VWS V14.01,2013-07-08 16:50:00,
2013-07-08 13:00:00,86.7,64.7,30.15,SSE,158,0.0,1.0,48,0.00,,,0.00,VWS V14.01,2013-07-08 17:00:00,
2013-07-08 13:10:00,86.3,67.2,30.15,SW,225,0.0,1.0,53,0.00,,,0.00,VWS V14.01,2013-07-08 17:10:00,
2013-07-08 13:20:00,86.1,65.3,30.14,South,180,0.0,1.0,50,0.00,,,0.00,VWS V14.01,2013-07-08 17:20:00,
2013-07-08 13:30:00,86.1,65.9,30.14,SSW,202,0.0,1.0,51,0.00,,,0.00,VWS V14.01,2013-07-08 17:30:00,
2013-07-08 13:40:00,86.1,64.7,30.14,SSW,202,0.0,1.0,49,0.00,,,0.00,VWS V14.01,2013-07-08 17:40:00,
2013-07-08 13:50:00,85.7,64.4,30.13,SSW,202,0.0,1.0,49,0.00,,,0.00,VWS V14.01,2013-07-08 17:50:00,
2013-07-08 14:00:00,85.1,63.8,30.13,West,270,0.0,5.0,49,0.00,,,0.00,VWS V14.01,2013-07-08 18:00:00,
2013-07-08 14:10:00,84.9,64.8,30.13,West,270,0.0,1.0,51,0.00,,,0.00,VWS V14.01,2013-07-08 18:10:00,
2013-07-08 14:20:00,85.1,66.1,30.13,West,270,0.0,1.0,53,0.00,,,0.00,VWS V14.01,2013-07-08 18:20:00,
2013-07-08 14:30:00,84.7,65.7,30.12,West,270,0.0,1.0,53,0.00,,,0.00,VWS V14.01,2013-07-08 18:30:00,
2013-07-08 14:40:00,84.7,66.2,30.12,SW,225,0.0,2.0,54,0.00,,,0.00,VWS V14.01,2013-07-08 18:40:00,
2013-07-08 14:50:00,84.7,65.1,30.12,SW,225,0.0,3.0,52,0.00,,,0.00,VWS V14.01,2013-07-08 18:50:00,
2013-07-08 15:00:00,84.9,63.0,30.12,SW,225,0.0,1.0,48,0.00,,,0.00,VWS V14.01,2013-07-08 19:00:00,
2013-07-08 15:10:00,85.3,64.0,30.12,SSW,202,0.0,1.0,49,0.00,,,0.00,VWS V14.01,2013-07-08 19:10:00,
2013-07-08 15:20:00,85.3,64.0,30.11,SW,225,0.0,1.0,49,0.00,,,0.00,VWS V14.01,2013-07-08 19:20:00,
2013-07-08 15:30:00,85.1,64.4,30.11,SSW,202,0.0,3.0,50,0.00,,,0.00,VWS V14.01,2013-07-08 19:30:00,
2013-07-08 15:40:00,85.1,64.4,30.11,SSW,202,0.0,1.0,50,0.00,,,0.00,VWS V14.01,2013-07-08 19:40:00,
2013-07-08 15:50:00,85.1,64.4,30.10,SSW,202,0.0,1.0,50,0.00,,,0.00,VWS V14.01,2013-07-08 19:50:00,
2013-07-08 16:00:00,85.1,65.0,30.10,SW,225,0.0,4.0,51,0.00,,,0.00,VWS V14.01,2013-07-08 20:00:00,
2013-07-08 16:10:00,85.5,63.0,30.10,SW,225,0.0,1.0,47,0.00,,,0.00,VWS V14.01,2013-07-08 20:10:00,
2013-07-08 16:30:00,85.5,63.0,30.09,SSW,202,0.0,1.0,47,0.00,,,0.00,VWS V14.01,2013-07-08 20:30:00,
2013-07-08 16:40:00,85.3,64.0,30.09,SSW,202,0.0,1.0,49,0.00,,,0.00,VWS V14.01,2013-07-08 20:40:00,
2013-07-08 16:50:00,85.3,65.7,30.09,SSW,202,0.0,1.0,52,0.00,,,0.00,VWS V14.01,2013-07-08 20:50:00,
2013-07-08 17:00:00,85.3,64.6,30.09,SSW,202,0.0,2.0,50,0.00,,,0.00,VWS V14.01,2013-07-08 21:00:00,
2013-07-08 17:10:00,84.9,64.8,30.09,SSW,202,0.0,1.0,51,0.00,,,0.00,VWS V14.01,2013-07-08 21:10:00,
2013-07-08 17:20:00,84.3,64.8,30.08,SW,225,0.0,1.0,52,0.00,,,0.00,VWS V14.01,2013-07-08 21:20:00,
2013-07-08 17:30:00,84.0,65.1,30.07,SW,225,0.0,1.0,53,0.00,,,0.00,VWS V14.01,2013-07-08 21:30:00,
2013-07-08 17:40:00,83.8,66.4,30.07,SW,225,0.0,1.0,56,0.00,,,0.00,VWS V14.01,2013-07-08 21:40:00,
2013-07-08 17:50:00,83.8,66.4,30.06,SW,225,0.0,1.0,56,0.00,,,0.00,VWS V14.01,2013-07-08 21:50:00,
2013-07-08 18:00:00,83.8,66.4,30.06,SW,225,0.0,1.0,56,0.00,,,0.00,VWS V14.01,2013-07-08 22:00:00,
2013-07-08 18:10:00,83.6,66.8,30.06,SW,225,0.0,1.0,57,0.00,,,0.00,VWS V14.01,2013-07-08 22:10:00,
2013-07-08 18:20:00,83.4,66.6,30.06,SW,225,0.0,1.0,57,0.00,,,0.00,VWS V14.01,2013-07-08 22:20:00,
2013-07-08 18:30:00,83.6,66.3,30.06,SW,225,0.0,1.0,56,0.00,,,0.00,VWS V14.01,2013-07-08 22:30:00,
2013-07-08 18:40:00,83.6,66.8,30.06,SW,225,0.0,1.0,57,0.00,,,0.00,VWS V14.01,2013-07-08 22:40:00,
2013-07-08 18:50:00,83.6,67.8,30.07,SW,225,0.0,1.0,59,0.00,,,0.00,VWS V14.01,2013-07-08 22:50:00,
2013-07-08 19:00:00,83.0,66.7,30.07,SW,225,0.0,1.0,58,0.00,,,0.00,VWS V14.01,2013-07-08 23:00:00,
2013-07-08 19:10:00,82.6,66.8,30.07,SW,225,0.0,1.0,59,0.00,,,0.00,VWS V14.01,2013-07-08 23:10:00,
2013-07-08 19:20:00,82.4,67.6,30.08,SW,225,0.0,0.0,61,0.00,,,0.00,VWS V14.01,2013-07-08 23:20:00,
2013-07-08 19:30:00,82.2,67.9,30.08,SW,225,0.0,0.0,62,0.00,,,0.00,VWS V14.01,2013-07-08 23:30:00,
2013-07-08 19:40:00,82.0,67.7,30.08,SW,225,0.0,0.0,62,0.00,,,0.00,VWS V14.01,2013-07-08 23:40:00,
2013-07-08 19:50:00,81.6,68.2,30.09,SW,225,0.0,0.0,64,0.00,,,0.00,VWS V14.01,2013-07-08 23:50:00,
2013-07-08 20:00:00,80.7,67.8,30.09,SW,225,0.0,0.0,65,0.00,,,0.00,VWS V14.01,2013-07-09 00:00:00,
2013-07-08 20:10:00,80.3,67.9,30.09,SW,225,0.0,0.0,66,0.00,,,0.00,VWS V14.01,2013-07-09 00:10:00,
2013-07-08 20:20:00,80.1,68.2,30.09,SW,225,0.0,0.0,67,0.00,,,0.00,VWS V14.01,2013-07-09 00:20:00,
2013-07-08 20:30:00,79.8,68.3,30.09,SW,225,0.0,0.0,68,0.00,,,0.00,VWS V14.01,2013-07-09 00:30:00,
2013-07-08 20:40:00,79.2,68.6,30.09,SW,225,0.0,0.0,70,0.00,,,0.00,VWS V14.01,2013-07-09 00:40:00,
2013-07-08 20:50:00,78.8,68.6,30.10,SW,225,0.0,0.0,71,0.00,,,0.00,VWS V14.01,2013-07-09 00:50:00,
2013-07-08 21:00:00,78.1,68.3,30.10,SW,225,0.0,0.0,72,0.00,,,0.00,VWS V14.01,2013-07-09 01:00:00,
2013-07-08 21:10:00,77.7,68.4,30.10,SW,225,0.0,0.0,73,0.00,,,0.00,VWS V14.01,2013-07-09 01:10:00,
2013-07-08 21:20:00,77.0,68.1,30.11,SW,225,0.0,0.0,74,0.00,,,0.00,VWS V14.01,2013-07-09 01:20:00,
2013-07-08 21:30:00,76.5,67.6,30.11,SW,225,0.0,0.0,74,0.00,,,0.00,VWS V14.01,2013-07-09 01:30:00,
2013-07-08 21:40:00,76.3,67.4,30.11,SW,225,0.0,0.0,74,0.00,,,0.00,VWS V14.01,2013-07-09 01:40:00,
2013-07-08 21:50:00,76.0,67.5,30.11,SW,225,0.0,0.0,75,0.00,,,0.00,VWS V14.01,2013-07-09 01:50:00,
2013-07-08 22:00:00,75.8,67.7,30.11,SW,225,0.0,0.0,76,0.00,,,0.00,VWS V14.01,2013-07-09 02:00:00,
2013-07-08 22:10:00,75.4,67.3,30.11,SW,225,0.0,0.0,76,0.00,,,0.00,VWS V14.01,2013-07-09 02:10:00,
2013-07-08 22:20:00,75.3,67.6,30.11,SW,225,0.0,0.0,77,0.00,,,0.00,VWS V14.01,2013-07-09 02:20:00,
2013-07-08 22:30:00,75.1,67.4,30.11,SW,225,0.0,0.0,77,0.00,,,0.00,VWS V14.01,2013-07-09 02:30:00,
2013-07-08 22:40:00,74.9,67.2,30.11,SW,225,0.0,0.0,77,0.00,,,0.00,VWS V14.01,2013-07-09 02:40:00,
2013-07-08 22:50:00,74.6,67.3,30.12,SW,225,0.0,0.0,78,0.00,,,0.00,VWS V14.01,2013-07-09 02:50:00,
2013-07-08 23:00:00,74.6,66.9,30.12,SW,225,0.0,0.0,77,0.00,,,0.00,VWS V14.01,2013-07-09 03:00:00,
2013-07-08 23:10:00,74.6,66.9,30.12,SW,225,0.0,0.0,77,0.00,,,0.00,VWS V14.01,2013-07-09 03:10:00,
2013-07-08 23:20:00,74.6,66.5,30.11,SW,225,0.0,0.0,76,0.00,,,0.00,VWS V14.01,2013-07-09 03:20:00,
2013-07-08 23:30:00,74.7,66.6,30.11,SW,225,0.0,0.0,76,0.00,,,0.00,VWS V14.01,2013-07-09 03:30:00,
2013-07-08 23:40:00,74.9,66.8,30.11,SW,225,0.0,0.0,76,0.00,,,0.00,VWS V14.01,2013-07-09 03:40:00,
2013-07-08 23:50:00,75.3,66.8,30.11,SW,225,0.0,0.0,75,0.00,,,0.00,VWS V14.01,2013-07-09 03:50:00,